Location: Newark
(58.9986°N, 38.5006°E)
Time: 05:35:46
(UTC+00:00)

N. Korean satellite - Pass Details

Date: 14 December 2019
Orbit: 454 x 507 km, 97.2° (Epoch: 25 January)

Event Time Altitude Azimuth Distance (km) Brightness Sun altitude
Rises 03:13:45 0° 18° (NNE) 2,560 10.3 -20.6°
Reaches altitude 10° 03:15:53 10° 24° (NNE) 1,665 9.4 -20.3°
Maximum altitude 03:19:22 49° 100° (E) 625 7.5 -19.8°
Drops below altitude 10° 03:22:46 10° 176° (S) 1,624 9.4 -19.4°
Sets 03:24:50 0° 182° (S) 2,487 10.3 -19.2°
